Retour au catalogue

COSMOS 2447

GLONASS

ActifNavigationMEO
NORAD 33466·PAYLOAD·🇷🇺 Russia

Lancé Dec 25, 2008 depuis Baikonur Cosmodrome

Loading…

Prochains Passages (prochaines 24 heures)

TLE

FraisSource: Space-Track

Époque: Sep 13, 2026, 22:51 UTC

1 33466U 08067A   26256.95248289 -.00000015  00000-0  00000-0 0  9998
2 33466  64.8779  66.3016 0006465 259.7136  97.5255  2.13107608137856

Suivez COSMOS 2447 en temps réel avec AllMySat

Download on the App Store